Year,Month,Day,Hour,Minute,Value (Times are PST for temperature in C)
2015,07,01,00,00,21.40
2015,07,01,00,01,21.40
2015,07,01,00,02,21.40
2015,07,01,00,03,21.40
2015,07,01,00,04,21.40
2015,07,01,00,05,21.40
2015,07,01,00,06,21.40
2015,07,01,00,07,21.40
2015,07,01,00,08,21.40
2015,07,01,00,09,21.40
2015,07,01,00,10,21.40
2015,07,01,00,11,21.40
2015,07,01,00,12,21.40
2015,07,01,00,13,21.40
2015,07,01,00,14,21.40
2015,07,01,00,15,21.40
2015,07,01,00,16,21.30
2015,07,01,00,17,21.30
2015,07,01,00,18,21.30
2015,07,01,00,19,21.30
2015,07,01,00,20,21.30
2015,07,01,00,21,21.30
2015,07,01,00,22,21.30
2015,07,01,00,23,21.30
2015,07,01,00,24,21.30
2015,07,01,00,25,21.30
2015,07,01,00,26,21.30
2015,07,01,00,27,21.30
2015,07,01,00,28,21.20
2015,07,01,00,29,21.20
2015,07,01,00,30,21.20
2015,07,01,00,31,21.20
2015,07,01,00,32,21.20
2015,07,01,00,33,21.20
2015,07,01,00,34,21.20
2015,07,01,00,35,21.20
2015,07,01,00,36,21.20
2015,07,01,00,37,21.20
2015,07,01,00,38,21.20
2015,07,01,00,39,21.20
2015,07,01,00,40,21.20
2015,07,01,00,41,21.20
2015,07,01,00,42,21.10
2015,07,01,00,43,21.10
2015,07,01,00,44,21.10
2015,07,01,00,45,21.10
2015,07,01,00,46,21.10
2015,07,01,00,47,21.10
2015,07,01,00,48,21.10
2015,07,01,00,49,21.00
2015,07,01,00,50,21.00
2015,07,01,00,51,21.00
2015,07,01,00,52,21.00
2015,07,01,00,53,20.90
2015,07,01,00,54,20.90
2015,07,01,00,55,20.90
2015,07,01,00,56,20.90
2015,07,01,00,57,20.90
2015,07,01,00,58,20.90
2015,07,01,00,59,20.80
2015,07,01,01,00,20.80
2015,07,01,01,01,20.80
2015,07,01,01,02,20.80
2015,07,01,01,03,20.80
2015,07,01,01,04,20.80
2015,07,01,01,05,20.80
2015,07,01,01,06,20.80
2015,07,01,01,07,20.80
2015,07,01,01,08,20.70
2015,07,01,01,09,20.70
2015,07,01,01,10,20.70
2015,07,01,01,11,20.70
2015,07,01,01,12,20.60
2015,07,01,01,13,20.60
2015,07,01,01,14,20.60
2015,07,01,01,15,20.50
2015,07,01,01,16,20.50
2015,07,01,01,17,20.50
2015,07,01,01,18,20.40
2015,07,01,01,19,20.40
2015,07,01,01,20,20.50
2015,07,01,01,21,20.50
2015,07,01,01,22,20.50
2015,07,01,01,23,20.50
2015,07,01,01,24,20.50
2015,07,01,01,25,20.50
2015,07,01,01,26,20.50
2015,07,01,01,27,20.50
2015,07,01,01,28,20.60
2015,07,01,01,29,20.60
2015,07,01,01,30,20.60
2015,07,01,01,31,20.60
2015,07,01,01,32,20.60
2015,07,01,01,33,20.60
2015,07,01,01,34,20.60
2015,07,01,01,35,20.60
2015,07,01,01,36,20.60
2015,07,01,01,37,20.60
2015,07,01,01,38,20.60
2015,07,01,01,39,20.70
2015,07,01,01,40,20.60
2015,07,01,01,41,20.60
2015,07,01,01,42,20.60
2015,07,01,01,43,20.60
2015,07,01,01,44,20.60
2015,07,01,01,45,20.60
2015,07,01,01,46,20.60
2015,07,01,01,47,20.60
2015,07,01,01,48,20.60
2015,07,01,01,49,20.60
2015,07,01,01,50,20.60
2015,07,01,01,51,20.60
2015,07,01,01,52,20.50
2015,07,01,01,53,20.50
2015,07,01,01,54,20.50
2015,07,01,01,55,20.50
2015,07,01,01,56,20.50
2015,07,01,01,57,20.50
2015,07,01,01,58,20.50
2015,07,01,01,59,20.50
2015,07,01,02,00,20.50
2015,07,01,02,01,20.50
2015,07,01,02,02,20.50
2015,07,01,02,03,20.50
2015,07,01,02,04,20.50
2015,07,01,02,05,20.50
2015,07,01,02,06,20.50
2015,07,01,02,07,20.50
2015,07,01,02,08,20.50
2015,07,01,02,09,20.40
2015,07,01,02,10,20.40
2015,07,01,02,11,20.40
2015,07,01,02,12,20.40
2015,07,01,02,13,20.40
2015,07,01,02,14,20.40
2015,07,01,02,15,20.40
2015,07,01,02,16,20.40
2015,07,01,02,17,20.40
2015,07,01,02,18,20.40
2015,07,01,02,19,20.40
2015,07,01,02,20,20.40
2015,07,01,02,21,20.40
2015,07,01,02,22,20.30
2015,07,01,02,23,20.30
2015,07,01,02,24,20.30
2015,07,01,02,25,20.30
2015,07,01,02,26,20.30
2015,07,01,02,27,20.20
2015,07,01,02,28,20.20
2015,07,01,02,29,20.20
2015,07,01,02,30,20.20
2015,07,01,02,31,20.20
2015,07,01,02,32,20.10
2015,07,01,02,33,20.10
2015,07,01,02,34,20.10
2015,07,01,02,35,20.10
2015,07,01,02,36,20.10
2015,07,01,02,37,20.00
2015,07,01,02,38,20.00
2015,07,01,02,39,20.00
2015,07,01,02,40,20.00
2015,07,01,02,41,20.00
2015,07,01,02,42,19.90
2015,07,01,02,43,19.90
2015,07,01,02,44,19.90
2015,07,01,02,45,19.90
2015,07,01,02,46,19.90
2015,07,01,02,47,19.90
2015,07,01,02,48,19.90
2015,07,01,02,49,19.90
2015,07,01,02,50,19.80
2015,07,01,02,51,19.80
2015,07,01,02,52,19.80
2015,07,01,02,53,19.80
2015,07,01,02,54,19.80
2015,07,01,02,55,19.80
2015,07,01,02,56,19.80
2015,07,01,02,57,19.80
2015,07,01,02,58,19.80
2015,07,01,02,59,19.80
2015,07,01,03,00,19.80
2015,07,01,03,01,19.70
2015,07,01,03,02,19.70
2015,07,01,03,03,19.70
2015,07,01,03,04,19.70
2015,07,01,03,05,19.70
2015,07,01,03,06,19.70
2015,07,01,03,07,19.70
2015,07,01,03,08,19.70
2015,07,01,03,09,19.60
2015,07,01,03,10,19.60
2015,07,01,03,11,19.60
2015,07,01,03,12,19.60
2015,07,01,03,13,19.60
2015,07,01,03,14,19.60
2015,07,01,03,15,19.60
2015,07,01,03,16,19.60
2015,07,01,03,17,19.50
2015,07,01,03,18,19.50
2015,07,01,03,19,19.50
2015,07,01,03,20,19.50
2015,07,01,03,21,19.50
2015,07,01,03,22,19.50
2015,07,01,03,23,19.40
2015,07,01,03,24,19.40
2015,07,01,03,25,19.40
2015,07,01,03,26,19.40
2015,07,01,03,27,19.40
2015,07,01,03,28,19.40
2015,07,01,03,29,19.30
2015,07,01,03,30,19.30
2015,07,01,03,31,19.30
2015,07,01,03,32,19.30
2015,07,01,03,33,19.30
2015,07,01,03,34,19.30
2015,07,01,03,35,19.30
2015,07,01,03,36,19.30
2015,07,01,03,37,19.30
2015,07,01,03,38,19.30
2015,07,01,03,39,19.30
2015,07,01,03,40,19.30
2015,07,01,03,41,19.30
2015,07,01,03,42,19.30
2015,07,01,03,43,19.30
2015,07,01,03,44,19.30
2015,07,01,03,45,19.30
2015,07,01,03,46,19.30
2015,07,01,03,47,19.30
2015,07,01,03,48,19.30
2015,07,01,03,49,19.30
2015,07,01,03,50,19.30
2015,07,01,03,51,19.20
2015,07,01,03,52,19.20
2015,07,01,03,53,19.20
2015,07,01,03,54,19.20
2015,07,01,03,55,19.20
2015,07,01,03,56,19.20
2015,07,01,03,57,19.20
2015,07,01,03,58,19.20
2015,07,01,03,59,19.20
2015,07,01,04,00,19.20
2015,07,01,04,01,19.20
2015,07,01,04,02,19.10
2015,07,01,04,03,19.10
2015,07,01,04,04,19.10
2015,07,01,04,05,19.10
2015,07,01,04,06,19.10
2015,07,01,04,07,19.10
2015,07,01,04,08,19.10
2015,07,01,04,09,19.10
2015,07,01,04,10,19.10
2015,07,01,04,11,19.10
2015,07,01,04,12,19.00
2015,07,01,04,13,19.00
2015,07,01,04,14,19.00
2015,07,01,04,15,19.00
2015,07,01,04,16,19.00
2015,07,01,04,17,19.00
2015,07,01,04,18,19.00
2015,07,01,04,19,18.90
2015,07,01,04,20,18.90
2015,07,01,04,21,18.90
2015,07,01,04,22,18.90
2015,07,01,04,23,18.90
2015,07,01,04,24,18.90
2015,07,01,04,25,18.90
2015,07,01,04,26,18.90
2015,07,01,04,27,18.90
2015,07,01,04,28,18.90
2015,07,01,04,29,18.90
2015,07,01,04,30,18.80
2015,07,01,04,31,18.80
2015,07,01,04,32,18.80
2015,07,01,04,33,18.80
2015,07,01,04,34,18.80
2015,07,01,04,35,18.80
2015,07,01,04,36,18.80
2015,07,01,04,37,18.80
2015,07,01,04,38,18.80
2015,07,01,04,39,18.80
2015,07,01,04,40,18.70
2015,07,01,04,41,18.70
2015,07,01,04,42,18.70
2015,07,01,04,43,18.70
2015,07,01,04,44,18.70
2015,07,01,04,45,18.70
2015,07,01,04,46,18.70
2015,07,01,04,47,18.70
2015,07,01,04,48,18.60
2015,07,01,04,49,18.60
2015,07,01,04,50,18.60
2015,07,01,04,51,18.60
2015,07,01,04,52,18.60
2015,07,01,04,53,18.60
2015,07,01,04,54,18.60
2015,07,01,04,55,18.60
2015,07,01,04,56,18.50
2015,07,01,04,57,18.50
2015,07,01,04,58,18.50
2015,07,01,04,59,18.50
2015,07,01,05,00,18.40
2015,07,01,05,01,18.40
2015,07,01,05,02,18.40
2015,07,01,05,03,18.40
2015,07,01,05,04,18.30
2015,07,01,05,05,18.30
2015,07,01,05,06,18.30
2015,07,01,05,07,18.30
2015,07,01,05,08,18.30
2015,07,01,05,09,18.30
2015,07,01,05,10,18.30
2015,07,01,05,11,18.30
2015,07,01,05,12,18.30
2015,07,01,05,13,18.20
2015,07,01,05,14,18.20
2015,07,01,05,15,18.20
2015,07,01,05,16,18.20
2015,07,01,05,17,18.20
2015,07,01,05,18,18.20
2015,07,01,05,19,18.20
2015,07,01,05,20,18.20
2015,07,01,05,21,18.20
2015,07,01,05,22,18.20
2015,07,01,05,23,18.20
2015,07,01,05,24,18.20
2015,07,01,05,25,18.20
2015,07,01,05,26,18.20
2015,07,01,05,27,18.20
2015,07,01,05,28,18.20
2015,07,01,05,29,18.20
2015,07,01,05,30,18.20
2015,07,01,05,31,18.20
2015,07,01,05,32,18.20
2015,07,01,05,33,18.20
2015,07,01,05,34,18.10
2015,07,01,05,35,18.10
2015,07,01,05,36,18.10
2015,07,01,05,37,18.10
2015,07,01,05,38,18.10
2015,07,01,05,39,18.10
2015,07,01,05,40,18.10
2015,07,01,05,41,18.10
2015,07,01,05,42,18.10
2015,07,01,05,43,18.10
2015,07,01,05,44,18.10
2015,07,01,05,45,18.10
2015,07,01,05,46,18.10
2015,07,01,05,47,18.10
2015,07,01,05,48,18.10
2015,07,01,05,49,18.10
2015,07,01,05,50,18.10
2015,07,01,05,51,18.10
2015,07,01,05,52,18.10
2015,07,01,05,53,18.10
2015,07,01,05,54,18.10
2015,07,01,05,55,18.10
2015,07,01,05,56,18.10
2015,07,01,05,57,18.10
2015,07,01,05,58,18.10
2015,07,01,05,59,18.10
2015,07,01,06,00,18.20
2015,07,01,06,01,18.20
2015,07,01,06,02,18.20
2015,07,01,06,03,18.20
2015,07,01,06,04,18.20
2015,07,01,06,05,18.20
2015,07,01,06,06,18.20
2015,07,01,06,07,18.20
2015,07,01,06,08,18.20
2015,07,01,06,09,18.20
2015,07,01,06,10,18.20
2015,07,01,06,11,18.20
2015,07,01,06,12,18.30
2015,07,01,06,13,18.30
2015,07,01,06,14,18.30
2015,07,01,06,15,18.30
2015,07,01,06,16,18.30
2015,07,01,06,17,18.30
2015,07,01,06,18,18.30
2015,07,01,06,19,18.30
2015,07,01,06,20,18.30
2015,07,01,06,21,18.30
2015,07,01,06,22,18.30
2015,07,01,06,23,18.30
2015,07,01,06,24,18.30
2015,07,01,06,25,18.30
2015,07,01,06,26,18.30
2015,07,01,06,27,18.30
2015,07,01,06,28,18.30
2015,07,01,06,29,18.30
2015,07,01,06,30,18.30
2015,07,01,06,31,18.30
2015,07,01,06,32,18.30
2015,07,01,06,33,18.40
2015,07,01,06,34,18.40
2015,07,01,06,35,18.40
2015,07,01,06,36,18.40
2015,07,01,06,37,18.40
2015,07,01,06,38,18.40
2015,07,01,06,39,18.40
2015,07,01,06,40,18.40
2015,07,01,06,41,18.40
2015,07,01,06,42,18.40
2015,07,01,06,43,18.40
2015,07,01,06,44,18.40
2015,07,01,06,45,18.40
2015,07,01,06,46,18.50
2015,07,01,06,47,18.50
2015,07,01,06,48,18.50
2015,07,01,06,49,18.50
2015,07,01,06,50,18.50
2015,07,01,06,51,18.50
2015,07,01,06,52,18.50
2015,07,01,06,53,18.50
2015,07,01,06,54,18.60
2015,07,01,06,55,18.60
2015,07,01,06,56,18.60
2015,07,01,06,57,18.60
2015,07,01,06,58,18.60
2015,07,01,06,59,18.60
2015,07,01,07,00,18.60
2015,07,01,07,01,18.60
2015,07,01,07,02,18.60
2015,07,01,07,03,18.60
2015,07,01,07,04,18.60
2015,07,01,07,05,18.60
2015,07,01,07,06,18.60
2015,07,01,07,07,18.60
2015,07,01,07,08,18.70
2015,07,01,07,09,18.70
2015,07,01,07,10,18.70
2015,07,01,07,11,18.70
2015,07,01,07,12,18.70
2015,07,01,07,13,18.70
2015,07,01,07,14,18.70
2015,07,01,07,15,18.70
2015,07,01,07,16,18.70
2015,07,01,07,17,18.70
2015,07,01,07,18,18.70
2015,07,01,07,19,18.70
2015,07,01,07,20,18.70
2015,07,01,07,21,18.70
2015,07,01,07,22,18.70
2015,07,01,07,23,18.80
2015,07,01,07,24,18.80
2015,07,01,07,25,18.80
2015,07,01,07,26,18.80
2015,07,01,07,27,18.80
2015,07,01,07,28,18.80
2015,07,01,07,29,18.80
2015,07,01,07,30,18.80
2015,07,01,07,31,18.80
2015,07,01,07,32,18.90
2015,07,01,07,33,18.90
2015,07,01,07,34,19.00
2015,07,01,07,35,19.00
2015,07,01,07,36,19.10
2015,07,01,07,37,19.10
2015,07,01,07,38,19.10
2015,07,01,07,39,19.20
2015,07,01,07,40,19.20
2015,07,01,07,41,19.20
2015,07,01,07,42,19.20
2015,07,01,07,43,19.20
2015,07,01,07,44,19.30
2015,07,01,07,45,19.30
2015,07,01,07,46,19.30
2015,07,01,07,47,19.40
2015,07,01,07,48,19.40
2015,07,01,07,49,19.50
2015,07,01,07,50,19.50
2015,07,01,07,51,19.50
2015,07,01,07,52,19.50
2015,07,01,07,53,19.40
2015,07,01,07,54,19.40
2015,07,01,07,55,19.40
2015,07,01,07,56,19.40
2015,07,01,07,57,19.30
2015,07,01,07,58,19.40
2015,07,01,07,59,19.30
2015,07,01,08,00,19.30
2015,07,01,08,01,19.30
2015,07,01,08,02,19.30
2015,07,01,08,03,19.40
2015,07,01,08,04,19.40
2015,07,01,08,05,19.40
2015,07,01,08,06,19.40
2015,07,01,08,07,19.40
2015,07,01,08,08,19.40
2015,07,01,08,09,19.50
2015,07,01,08,10,19.50
2015,07,01,08,11,19.50
2015,07,01,08,12,19.60
2015,07,01,08,13,19.60
2015,07,01,08,14,19.60
2015,07,01,08,15,19.60
2015,07,01,08,16,19.60
2015,07,01,08,17,19.60
2015,07,01,08,18,19.60
2015,07,01,08,19,19.60
2015,07,01,08,20,19.60
2015,07,01,08,21,19.50
2015,07,01,08,22,19.50
2015,07,01,08,23,19.60
2015,07,01,08,24,19.60
2015,07,01,08,25,19.60
2015,07,01,08,26,19.60
2015,07,01,08,27,19.60
2015,07,01,08,28,19.60
2015,07,01,08,29,19.70
2015,07,01,08,30,19.70
2015,07,01,08,31,19.80
2015,07,01,08,32,19.80
2015,07,01,08,33,19.80
2015,07,01,08,34,19.90
2015,07,01,08,35,19.90
2015,07,01,08,36,19.90
2015,07,01,08,37,19.90
2015,07,01,08,38,19.90
2015,07,01,08,39,19.90
2015,07,01,08,40,19.90
2015,07,01,08,41,20.00
2015,07,01,08,42,20.00
2015,07,01,08,43,20.00
2015,07,01,08,44,20.00
2015,07,01,08,45,20.00
2015,07,01,08,46,20.00
2015,07,01,08,47,20.10
2015,07,01,08,48,20.10
2015,07,01,08,49,20.10
2015,07,01,08,50,20.10
2015,07,01,08,51,20.20
2015,07,01,08,52,20.20
2015,07,01,08,53,20.20
2015,07,01,08,54,20.20
2015,07,01,08,55,20.30
2015,07,01,08,56,20.30
2015,07,01,08,57,20.20
2015,07,01,08,58,20.20
2015,07,01,08,59,20.10
2015,07,01,09,00,20.00
2015,07,01,09,01,20.00
2015,07,01,09,02,20.00
2015,07,01,09,03,20.00
2015,07,01,09,04,20.00
2015,07,01,09,05,20.10
2015,07,01,09,06,20.10
2015,07,01,09,07,20.10
2015,07,01,09,08,20.20
2015,07,01,09,09,20.20
2015,07,01,09,10,20.20
2015,07,01,09,11,20.20
2015,07,01,09,12,20.20
2015,07,01,09,13,20.30
2015,07,01,09,14,20.30
2015,07,01,09,15,20.30
2015,07,01,09,16,20.30
2015,07,01,09,17,20.30
2015,07,01,09,18,20.30
2015,07,01,09,19,20.30
2015,07,01,09,20,20.30
2015,07,01,09,21,20.30
2015,07,01,09,22,20.40
2015,07,01,09,23,20.50
2015,07,01,09,24,20.60
2015,07,01,09,25,20.70
2015,07,01,09,26,20.80
2015,07,01,09,27,20.80
2015,07,01,09,28,20.90
2015,07,01,09,29,20.90
2015,07,01,09,30,21.00
2015,07,01,09,31,21.00
2015,07,01,09,32,21.00
2015,07,01,09,33,21.00
2015,07,01,09,34,21.00
2015,07,01,09,35,21.00
2015,07,01,09,36,21.00
2015,07,01,09,37,21.00
2015,07,01,09,38,20.90
2015,07,01,09,39,20.90
2015,07,01,09,40,20.90
2015,07,01,09,41,20.90
2015,07,01,09,42,20.90
2015,07,01,09,43,20.90
2015,07,01,09,44,20.90
2015,07,01,09,45,20.90
2015,07,01,09,46,20.90
2015,07,01,09,47,20.90
2015,07,01,09,48,20.90
2015,07,01,09,49,20.90
2015,07,01,09,50,20.90
2015,07,01,09,51,20.90
2015,07,01,09,52,20.90
2015,07,01,09,53,20.90
2015,07,01,09,54,20.90
2015,07,01,09,55,20.90
2015,07,01,09,56,20.80
2015,07,01,09,57,20.80
2015,07,01,09,58,20.80
2015,07,01,09,59,20.80
2015,07,01,10,00,20.70
2015,07,01,10,01,20.70
2015,07,01,10,02,20.80
2015,07,01,10,03,20.80
2015,07,01,10,04,20.90
2015,07,01,10,05,20.90
2015,07,01,10,06,21.00
2015,07,01,10,07,21.10
2015,07,01,10,08,21.20
2015,07,01,10,09,21.30
2015,07,01,10,10,21.30
2015,07,01,10,11,21.40
2015,07,01,10,12,21.50
2015,07,01,10,13,21.60
2015,07,01,10,14,21.70
2015,07,01,10,15,21.80
2015,07,01,10,16,21.80
2015,07,01,10,17,21.90
2015,07,01,10,18,21.90
2015,07,01,10,19,21.90
2015,07,01,10,20,21.90
2015,07,01,10,21,21.90
2015,07,01,10,22,21.90
2015,07,01,10,23,21.90
2015,07,01,10,24,21.90
2015,07,01,10,25,21.90
2015,07,01,10,26,21.90
2015,07,01,10,27,21.90
2015,07,01,10,28,21.80
2015,07,01,10,29,21.80
2015,07,01,10,30,21.80
2015,07,01,10,31,21.80
2015,07,01,10,32,21.80
2015,07,01,10,33,21.80
2015,07,01,10,34,21.80
2015,07,01,10,35,21.80
2015,07,01,10,36,21.80
2015,07,01,10,37,21.80
2015,07,01,10,38,21.80
2015,07,01,10,39,21.80
2015,07,01,10,40,21.80
2015,07,01,10,41,21.80
2015,07,01,10,42,21.80
2015,07,01,10,43,21.80
2015,07,01,10,44,21.80
2015,07,01,10,45,21.80
2015,07,01,10,46,21.80
2015,07,01,10,47,21.80
2015,07,01,10,48,21.80
2015,07,01,10,49,21.80
2015,07,01,10,50,21.80
2015,07,01,10,51,21.80
2015,07,01,10,52,21.90
2015,07,01,10,53,22.00
2015,07,01,10,54,22.10
2015,07,01,10,55,22.20
2015,07,01,10,56,22.20
2015,07,01,10,57,22.20
2015,07,01,10,58,22.30
2015,07,01,10,59,22.30
2015,07,01,11,00,22.30
2015,07,01,11,01,22.30
2015,07,01,11,02,22.30
2015,07,01,11,03,22.20
2015,07,01,11,04,22.20
2015,07,01,11,05,22.20
2015,07,01,11,06,22.20
2015,07,01,11,07,22.10
2015,07,01,11,08,22.10
2015,07,01,11,09,22.00
2015,07,01,11,10,22.00
2015,07,01,11,11,22.00
2015,07,01,11,12,21.90
2015,07,01,11,13,21.90
2015,07,01,11,14,21.80
2015,07,01,11,15,21.90
2015,07,01,11,16,21.90
2015,07,01,11,17,21.90
2015,07,01,11,18,21.90
2015,07,01,11,19,22.00
2015,07,01,11,20,22.00
2015,07,01,11,21,22.00
2015,07,01,11,22,22.00
2015,07,01,11,23,22.00
2015,07,01,11,24,22.10
2015,07,01,11,25,22.10
2015,07,01,11,26,22.10
2015,07,01,11,27,22.10
2015,07,01,11,28,22.10
2015,07,01,11,29,22.20
2015,07,01,11,30,22.20
2015,07,01,11,31,22.20
2015,07,01,11,32,22.20
2015,07,01,11,33,22.20
2015,07,01,11,34,22.30
2015,07,01,11,35,22.40
2015,07,01,11,36,22.40
2015,07,01,11,37,22.50
2015,07,01,11,38,22.60
2015,07,01,11,39,22.70
2015,07,01,11,40,22.70
2015,07,01,11,41,22.70
2015,07,01,11,42,22.70
2015,07,01,11,43,22.60
2015,07,01,11,44,22.50
2015,07,01,11,45,22.40
2015,07,01,11,46,22.50
2015,07,01,11,47,22.50
2015,07,01,11,48,22.50
2015,07,01,11,49,22.60
2015,07,01,11,50,22.60
2015,07,01,11,51,22.70
2015,07,01,11,52,22.80
2015,07,01,11,53,22.80
2015,07,01,11,54,22.80
2015,07,01,11,55,22.80
2015,07,01,11,56,22.80
2015,07,01,11,57,22.90
2015,07,01,11,58,22.90
2015,07,01,11,59,22.80
2015,07,01,12,00,22.80
2015,07,01,12,01,22.90
2015,07,01,12,02,22.90
2015,07,01,12,03,22.90
2015,07,01,12,04,23.00
2015,07,01,12,05,23.00
2015,07,01,12,06,23.00
2015,07,01,12,07,23.00
2015,07,01,12,08,23.00
2015,07,01,12,09,22.90
2015,07,01,12,10,22.80
2015,07,01,12,11,22.70
2015,07,01,12,12,22.70
2015,07,01,12,13,22.80
2015,07,01,12,14,22.80
2015,07,01,12,15,22.90
2015,07,01,12,16,22.90
2015,07,01,12,17,22.90
2015,07,01,12,18,22.90
2015,07,01,12,19,22.90
2015,07,01,12,20,23.00
2015,07,01,12,21,23.10
2015,07,01,12,22,23.10
2015,07,01,12,23,23.20
2015,07,01,12,24,23.20
2015,07,01,12,25,23.30
2015,07,01,12,26,23.30
2015,07,01,12,27,23.40
2015,07,01,12,28,23.50
2015,07,01,12,29,23.60
2015,07,01,12,30,23.60
2015,07,01,12,31,23.60
2015,07,01,12,32,23.60
2015,07,01,12,33,23.70
2015,07,01,12,34,23.70
2015,07,01,12,35,23.80
2015,07,01,12,36,23.80
2015,07,01,12,37,23.90
2015,07,01,12,38,24.00
2015,07,01,12,39,24.00
2015,07,01,12,40,24.00
2015,07,01,12,41,24.00
2015,07,01,12,42,24.00
2015,07,01,12,43,24.10
2015,07,01,12,44,24.10
2015,07,01,12,45,24.10
2015,07,01,12,46,24.20
2015,07,01,12,47,24.20
2015,07,01,12,48,24.20
2015,07,01,12,49,24.20
2015,07,01,12,50,24.20
2015,07,01,12,51,24.20
2015,07,01,12,52,24.20
2015,07,01,12,53,24.20
2015,07,01,12,54,24.30
2015,07,01,12,55,24.40
2015,07,01,12,56,24.40
2015,07,01,12,57,24.50
2015,07,01,12,58,24.60
2015,07,01,12,59,24.60
2015,07,01,13,00,24.70
2015,07,01,13,01,24.70
2015,07,01,13,02,24.70
2015,07,01,13,03,24.80
2015,07,01,13,04,24.80
2015,07,01,13,05,24.80
2015,07,01,13,06,24.80
2015,07,01,13,07,24.80
2015,07,01,13,08,24.90
2015,07,01,13,09,25.00
2015,07,01,13,10,25.00
2015,07,01,13,11,25.10
2015,07,01,13,12,25.20
2015,07,01,13,13,25.20
2015,07,01,13,14,25.20
2015,07,01,13,15,25.10
2015,07,01,13,16,25.10
2015,07,01,13,17,25.10
2015,07,01,13,18,25.10
2015,07,01,13,19,25.20
2015,07,01,13,20,25.30
2015,07,01,13,21,25.30
2015,07,01,13,22,25.30
2015,07,01,13,23,25.30
2015,07,01,13,24,25.20
2015,07,01,13,25,25.10
2015,07,01,13,26,25.10
2015,07,01,13,27,25.10
2015,07,01,13,28,25.10
2015,07,01,13,29,25.20
2015,07,01,13,30,25.30
2015,07,01,13,31,25.40
2015,07,01,13,32,25.40
2015,07,01,13,33,25.40
2015,07,01,13,34,25.40
2015,07,01,13,35,25.50
2015,07,01,13,36,25.40
2015,07,01,13,37,25.40
2015,07,01,13,38,25.40
2015,07,01,13,39,25.50
2015,07,01,13,40,25.50
2015,07,01,13,41,25.50
2015,07,01,13,42,25.40
2015,07,01,13,43,25.30
2015,07,01,13,44,25.20
2015,07,01,13,45,25.10
2015,07,01,13,46,25.10
2015,07,01,13,47,25.00
2015,07,01,13,48,25.00
2015,07,01,13,49,25.00
2015,07,01,13,50,25.10
2015,07,01,13,51,25.20
2015,07,01,13,52,25.30
2015,07,01,13,53,25.30
2015,07,01,13,54,25.30
2015,07,01,13,55,25.30
2015,07,01,13,56,25.30
2015,07,01,13,57,25.40
2015,07,01,13,58,25.60
2015,07,01,13,59,25.70
2015,07,01,14,00,25.80
2015,07,01,14,01,25.90
2015,07,01,14,02,26.00
2015,07,01,14,03,26.10
2015,07,01,14,04,26.30
2015,07,01,14,05,26.30
2015,07,01,14,06,26.40
2015,07,01,14,07,26.50
2015,07,01,14,08,26.50
2015,07,01,14,09,26.50
2015,07,01,14,10,26.50
2015,07,01,14,11,26.40
2015,07,01,14,12,26.40
2015,07,01,14,13,26.30
2015,07,01,14,14,26.30
2015,07,01,14,15,26.30
2015,07,01,14,16,26.30
2015,07,01,14,17,26.20
2015,07,01,14,18,26.20
2015,07,01,14,19,26.20
2015,07,01,14,20,26.10
2015,07,01,14,21,26.00
2015,07,01,14,22,26.00
2015,07,01,14,23,25.90
2015,07,01,14,24,25.90
2015,07,01,14,25,25.90
2015,07,01,14,26,25.90
2015,07,01,14,27,26.00
2015,07,01,14,28,26.10
2015,07,01,14,29,26.10
2015,07,01,14,30,26.10
2015,07,01,14,31,26.10
2015,07,01,14,32,26.20
2015,07,01,14,33,26.20
2015,07,01,14,34,26.20
2015,07,01,14,35,26.30
2015,07,01,14,36,26.30
2015,07,01,14,37,26.30
2015,07,01,14,38,26.30
2015,07,01,14,39,26.40
2015,07,01,14,40,26.40
2015,07,01,14,41,26.40
2015,07,01,14,42,26.30
2015,07,01,14,43,26.30
2015,07,01,14,44,26.30
2015,07,01,14,45,26.30
2015,07,01,14,46,26.30
2015,07,01,14,47,26.30
2015,07,01,14,48,26.30
2015,07,01,14,49,26.30
2015,07,01,14,50,26.30
2015,07,01,14,51,26.30
2015,07,01,14,52,26.40
2015,07,01,14,53,26.40
2015,07,01,14,54,26.50
2015,07,01,14,55,26.50
2015,07,01,14,56,26.50
2015,07,01,14,57,26.50
2015,07,01,14,58,26.60
2015,07,01,14,59,26.60
2015,07,01,15,00,26.60
2015,07,01,15,01,26.70
2015,07,01,15,02,26.70
2015,07,01,15,03,26.70
2015,07,01,15,04,26.70
2015,07,01,15,05,26.60
2015,07,01,15,06,26.60
2015,07,01,15,07,26.60
2015,07,01,15,08,26.60
2015,07,01,15,09,26.60
2015,07,01,15,10,26.60
2015,07,01,15,11,26.60
2015,07,01,15,12,26.60
2015,07,01,15,13,26.70
2015,07,01,15,14,26.70
2015,07,01,15,15,26.70
2015,07,01,15,16,26.80
2015,07,01,15,17,26.90
2015,07,01,15,18,27.10
2015,07,01,15,19,27.20
2015,07,01,15,20,27.20
2015,07,01,15,21,27.30
2015,07,01,15,22,27.40
2015,07,01,15,23,27.40
2015,07,01,15,24,27.40
2015,07,01,15,25,27.40
2015,07,01,15,26,27.40
2015,07,01,15,27,27.50
2015,07,01,15,28,27.50
2015,07,01,15,29,27.50
2015,07,01,15,30,27.50
2015,07,01,15,31,27.60
2015,07,01,15,32,27.60
2015,07,01,15,33,27.60
2015,07,01,15,34,27.60
2015,07,01,15,35,27.70
2015,07,01,15,36,27.70
2015,07,01,15,37,27.80
2015,07,01,15,38,27.80
2015,07,01,15,39,27.90
2015,07,01,15,40,27.90
2015,07,01,15,41,27.90
2015,07,01,15,42,27.80
2015,07,01,15,43,27.70
2015,07,01,15,44,27.60
2015,07,01,15,45,27.50
2015,07,01,15,46,27.50
2015,07,01,15,47,27.50
2015,07,01,15,48,27.50
2015,07,01,15,49,27.40
2015,07,01,15,50,27.30
2015,07,01,15,51,27.30
2015,07,01,15,52,27.30
2015,07,01,15,53,27.20
2015,07,01,15,54,27.30
2015,07,01,15,55,27.30
2015,07,01,15,56,27.30
2015,07,01,15,57,27.30
2015,07,01,15,58,27.30
2015,07,01,15,59,27.30
2015,07,01,16,00,27.30
2015,07,01,16,01,27.20
2015,07,01,16,02,27.20
2015,07,01,16,03,27.20
2015,07,01,16,04,27.20
2015,07,01,16,05,27.20
2015,07,01,16,06,27.20
2015,07,01,16,07,27.30
2015,07,01,16,08,27.30
2015,07,01,16,09,27.30
2015,07,01,16,10,27.30
2015,07,01,16,11,27.30
2015,07,01,16,12,27.40
2015,07,01,16,13,27.40
2015,07,01,16,14,27.50
2015,07,01,16,15,27.50
2015,07,01,16,16,27.50
2015,07,01,16,17,27.40
2015,07,01,16,18,27.50
2015,07,01,16,19,27.60
2015,07,01,16,20,27.60
2015,07,01,16,21,27.70
2015,07,01,16,22,27.70
2015,07,01,16,23,27.70
2015,07,01,16,24,27.70
2015,07,01,16,25,27.80
2015,07,01,16,26,27.90
2015,07,01,16,27,27.90
2015,07,01,16,28,28.00
2015,07,01,16,29,28.00
2015,07,01,16,30,28.00
2015,07,01,16,31,27.90
2015,07,01,16,32,27.80
2015,07,01,16,33,27.70
2015,07,01,16,34,27.70
2015,07,01,16,35,27.70
2015,07,01,16,36,27.70
2015,07,01,16,37,27.80
2015,07,01,16,38,27.80
2015,07,01,16,39,27.80
2015,07,01,16,40,27.90
2015,07,01,16,41,28.00
2015,07,01,16,42,28.10
2015,07,01,16,43,28.10
2015,07,01,16,44,28.10
2015,07,01,16,45,28.20
2015,07,01,16,46,28.10
2015,07,01,16,47,28.10
2015,07,01,16,48,28.10
2015,07,01,16,49,28.10
2015,07,01,16,50,28.10
2015,07,01,16,51,28.10
2015,07,01,16,52,28.10
2015,07,01,16,53,28.20
2015,07,01,16,54,28.20
2015,07,01,16,55,28.20
2015,07,01,16,56,28.20
2015,07,01,16,57,28.10
2015,07,01,16,58,28.10
2015,07,01,16,59,28.10
2015,07,01,17,00,28.10
2015,07,01,17,01,28.00
2015,07,01,17,02,27.90
2015,07,01,17,03,27.90
2015,07,01,17,04,27.80
2015,07,01,17,05,27.80
2015,07,01,17,06,27.80
2015,07,01,17,07,27.90
2015,07,01,17,08,27.90
2015,07,01,17,09,28.00
2015,07,01,17,10,28.10
2015,07,01,17,11,28.20
2015,07,01,17,12,28.20
2015,07,01,17,13,28.30
2015,07,01,17,14,28.30
2015,07,01,17,15,28.30
2015,07,01,17,16,28.30
2015,07,01,17,17,28.30
2015,07,01,17,18,28.30
2015,07,01,17,19,28.30